Weather History for Tacoma Narrows, WA

Change the Weather History Date:

Thursday, February 14, 2013

  Actual Average Record
Temperature  
Mean Temperature 44 °F -  
Max Temperature 48 °F 46 °F 52 °F (2014)
Min Temperature 41 °F 36 °F 30 °F (2001)
Degree Days  
Heating Degree Days 20    
Moisture  
Dew Point 40 °F    
Average Humidity 86    
Maximum Humidity 89    
Minimum Humidity 80    
Precipitation  
Precipitation 0.01 in - - ()
Sea Level Pressure  
Sea Level Pressure 30.54 in    
Wind  
Wind Speed 4 mph (SSW)    
Max Wind Speed 9 mph    
Max Gust Speed -    
Visibility 9 miles    
Events Rain    
Averages and records for this station are not official NWS values.
T = Trace of Precipitation, MM = Missing Value Source: NWS Daily Summary

Daily Weather History Graph

Daily Weather History Graph

Search for Another Location

Airport:

Trip Planner

Search our weather history database for the weather conditions in past years. The results will help you decide how hot, cold, wet, or windy it might be!

Date:

Astronomy

Feb. 14, 2013 Rise Set
Actual Time 7:16 AM PST 5:33 PM PST
Civil Twilight 6:44 AM PST 6:04 PM PST
Nautical Twilight 6:08 AM PST 6:40 PM PST
Astronomical Twilight 5:33 AM PST 7:16 PM PST
Moon 8:58 AM PST (2/14) 11:07 PM PST (2/14)
Length of Visible Light 11h 20m
Length of Day
10h 16m
Waxing Crescent, 22% of the Moon is Illuminated
Feb 14
Waxing Crescent
Feb 17
First Quarter
Feb 25
Full
Mar 4
Last Quarter
Mar 11
New

Hourly Weather History & Observations

Time (PST) Temp. Windchill Dew Point Humidity Pressure Visibility Wind Dir Wind Speed Gust Speed Precip Events Conditions
12:40 AM 42.8 °F 38.6 °F 39.2 °F 87% 30.51 in 10.0 mi SSW 6.9 mph - N/A   Overcast
12:53 AM 43.0 °F 38.8 °F 39.0 °F 86% 30.52 in 10.0 mi SSW 6.9 mph - N/A   Overcast
1:53 AM 41.0 °F 38.0 °F 37.9 °F 89% 30.53 in 10.0 mi SSW 4.6 mph - N/A   Mostly Cloudy
2:07 AM 41.0 °F 39.0 °F 37.4 °F 87% 30.52 in 10.0 mi SSW 3.5 mph - N/A   Scattered Clouds
2:15 AM 41.0 °F 38.0 °F 37.4 °F 87% 30.52 in 10.0 mi SSW 4.6 mph - N/A   Mostly Cloudy
2:28 AM 41.0 °F 37.1 °F 37.4 °F 87% 30.52 in 10.0 mi South 5.8 mph - N/A   Mostly Cloudy
2:53 AM 42.1 °F 38.4 °F 37.9 °F 85% 30.53 in 10.0 mi SSW 5.8 mph - N/A   Overcast
3:17 AM 41.0 °F 37.1 °F 37.4 °F 87% 30.51 in 10.0 mi South 5.8 mph - N/A   Mostly Cloudy
3:53 AM 42.1 °F 39.2 °F 39.0 °F 89% 30.51 in 10.0 mi SSE 4.6 mph - N/A   Overcast
4:53 AM 42.1 °F 37.7 °F 39.0 °F 89% 30.51 in 10.0 mi South 6.9 mph - N/A   Overcast
5:53 AM 42.1 °F 37.1 °F 37.9 °F 85% 30.53 in 10.0 mi South 8.1 mph - N/A   Overcast
6:53 AM 42.1 °F 37.1 °F 39.0 °F 89% 30.53 in 10.0 mi South 8.1 mph - 0.01 in Rain Light Rain
7:39 AM 42.8 °F 37.5 °F 39.2 °F 87% 30.52 in 10.0 mi South 9.2 mph - 0.00 in   Overcast
7:53 AM 42.1 °F 37.7 °F 39.0 °F 89% 30.53 in 10.0 mi South 6.9 mph - 0.00 in   Overcast
8:53 AM 43.0 °F 40.3 °F 37.9 °F 82% 30.55 in 10.0 mi South 4.6 mph - N/A   Overcast
9:53 AM 43.0 °F - 39.0 °F 86% 30.55 in 6.0 mi Calm Calm - N/A   Overcast
10:31 AM 42.8 °F - 39.2 °F 87% 30.54 in 6.0 mi Calm Calm - N/A   Overcast
10:44 AM 44.6 °F 42.2 °F 39.2 °F 81% 30.54 in 4.0 mi South 4.6 mph - N/A   Overcast
10:53 AM 44.1 °F 41.5 °F 39.9 °F 85% 30.56 in 3.0 mi South 4.6 mph - N/A   Overcast
11:53 AM 45.0 °F 42.6 °F 41.0 °F 86% 30.55 in 4.0 mi South 4.6 mph - N/A   Overcast
12:14 PM 44.6 °F 42.2 °F 41.0 °F 87% 30.54 in 10.0 mi South 4.6 mph - N/A   Overcast
12:53 PM 45.0 °F - 41.0 °F 86% 30.55 in 3.0 mi Calm Calm - N/A   Overcast
1:53 PM 46.0 °F - 42.1 °F 86% 30.56 in 4.0 mi Calm Calm - N/A   Overcast
2:53 PM 46.9 °F - 41.0 °F 80% 30.55 in 5.0 mi Calm Calm - N/A   Haze
3:53 PM 48.0 °F - 42.1 °F 80% 30.55 in 10.0 mi Calm Calm - N/A   Overcast
4:00 PM 48.2 °F - 42.8 °F 82% 30.54 in 10.0 mi Calm Calm - N/A   Overcast
4:17 PM 46.4 °F - 42.8 °F 87% 30.55 in 10.0 mi Calm Calm - N/A   Overcast
4:53 PM 46.9 °F - 42.1 °F 83% 30.55 in 10.0 mi Calm Calm - N/A   Overcast
5:53 PM 46.0 °F - 43.0 °F 89% 30.54 in 10.0 mi Calm Calm - N/A   Overcast
6:53 PM 46.0 °F - 43.0 °F 89% 30.56 in 10.0 mi Calm Calm - N/A   Overcast
7:18 PM 46.4 °F - 42.8 °F 87% 30.54 in 10.0 mi Calm Calm - N/A   Overcast
7:53 PM 46.0 °F - 43.0 °F 89% 30.56 in 10.0 mi Calm Calm - N/A   Overcast
8:00 PM 46.4 °F - 42.8 °F 87% 30.55 in 10.0 mi Calm Calm - N/A   Overcast
8:53 PM 46.0 °F - 43.0 °F 89% 30.55 in 10.0 mi Calm Calm - N/A   Overcast
9:53 PM 46.0 °F - 43.0 °F 89% 30.55 in 10.0 mi Calm Calm - N/A   Overcast
10:44 PM 46.4 °F 45.2 °F 42.8 °F 87% 30.55 in 10.0 mi NW 3.5 mph - N/A   Overcast
10:53 PM 46.0 °F - 43.0 °F 89% 30.55 in 10.0 mi Calm Calm - N/A   Overcast
11:53 PM 46.0 °F 44.8 °F 43.0 °F 89% 30.55 in 9.0 mi NNW 3.5 mph - N/A   Overcast